Flag for U.S.A. Weather past 2 weeks in Bismarck, North Dakota, U.S.A.

Now
84 °F

Sunny.


Feels Like: 82 °F
Forecast: 53 / 85 °F
Wind: 16 mph from Northwest

Location: Bismarck Municipal Airport

Current Time: Jul 30, 2015 at 7:11:19 PM

Latest Report: Jul 30, 2015 at 5:52 PM


Visibility: 10 mi

Pressure: 30.11 "Hg (28.41 "Hg at 513m altitude)

Humidity: 26%

Dew point: 45 °F

Location of BismarckLocation

Historic Weather in Bismarck — Graph

°F

Bismarck temperature yesterday

Maximum temperature yesterday: 83 °F (at 4:52 PM)
Minimum temperature yesterday: 60 °F (at 12:52 AM)
Average temperature yesterday: 71 °F

Past Weeks' High & Low Weather Summary

 TemperatureHumidityPressure
High94 °F (Jul 23, 4:52 PM)97% (Jul 16, 3:52 AM)30.14 "Hg (Jul 16, 3:52 AM)
Low51 °F (Jul 21, 4:52 AM)22% (Jul 19, 5:52 PM)29.56 "Hg (Jul 28, 12:52 AM)
Average72 °F64%29.83 "Hg
* Reported Jul 15 5:52 PM — Jul 30 5:52 PM, Bismarck, Weather by CustomWeather, © 2015

Note: Actual official high and low records may vary slightly from our data, if they occured in-between our weather recording intervals... More about our weather records

Advertising

Bismarck weather history for previous 24 hours

 ConditionsComfort  
Time TempWeatherWind HumidityBarometerVisibility
5:52 PM
Thu, Jul 30
84 °FSunny.16 mph26%30.11 "Hg10 mi
4:52 PM84 °FSunny.18 mph25%30.11 "Hg10 mi
3:52 PM85 °FSunny.20 mph30%30.12 "Hg10 mi
2:52 PM84 °FSunny.12 mph32%30.12 "Hg10 mi
1:52 PM83 °FSunny.13 mph36%30.14 "Hg10 mi
12:52 PM80 °FSunny.13 mph39%30.14 "Hg10 mi
11:52 AM79 °FSunny.13 mph39%30.13 "Hg10 mi
10:52 AM76 °FSunny.7 mph42%30.13 "Hg10 mi
9:52 AM71 °FSunny.3 mph55%30.13 "Hg10 mi
8:52 AM65 °FSunny.7 mph59%30.13 "Hg10 mi
7:52 AM62 °FSunny.3 mph65%30.13 "Hg10 mi
6:52 AM57 °FClear.13 mph74%30.12 "Hg10 mi
5:52 AM56 °FClear.5 mph77%30.10 "Hg10 mi
4:52 AM56 °FClear.6 mph81%30.09 "Hg10 mi
3:52 AM57 °FClear.No wind78%30.09 "Hg10 mi
2:52 AM56 °FClear.3 mph81%30.09 "Hg10 mi
1:52 AM57 °FClear.3 mph81%30.09 "Hg10 mi
12:52 AM55 °FClear.No wind83%30.09 "Hg10 mi
11:52 PM
Wed, Jul 29
64 °FClear.6 mph63%30.07 "Hg10 mi
10:52 PM68 °FClear.6 mph57%30.06 "Hg10 mi
9:52 PM70 °FSunny.6 mph51%30.03 "Hg10 mi
8:52 PM77 °FSunny.8 mph37%30.01 "Hg10 mi
7:52 PM80 °FSunny.13 mph31%30.01 "Hg10 mi
Weather by CustomWeather, © 2015

See weather overviewHow to use our weather pages